Starlink 31104

operational
NORAD ID: 58672 Int'l Des: 2023-211 Owner: SPXS Country: US Constellation: starlink
LEOCIRCULAR

关于 Starlink 31104

正在加载描述...

实时位置

正在加载3D地球...

即将过境

高度历史

Altitude vs Time

uPlot chart will show altitude changes over time

两行轨道根数

1 58672U 23211F 25260.70561405 -.00001317 00000-0 -38363-4 0 9991
2 58672 43.0028 341.7977 0000938 270.4169 89.6575 15.27571766 97298
Epoch: Sep 17, 2025 • Age: 31 hours

当前状态

高度 495.6 km
速度 7.62 km/s
星下点 -42.68°S, 102.6°W
发射日期 Dec 29, 2023
运行时间 1.7 years
类型 internet

技术详情

分类 Payload
质量 730.00 kg
干质量 700.00 kg
总质量 730.00 kg
长度 0.30 m
直径 4.10 m
跨度 29.00 m
形状 Box + pan
制造商 SPXS
平台类型 Starlink V2M
阶段状态 In Orbit
所有者/国家 SPXS/US

大型星座

Loading constellations...